Temperature
25 25 25 25 24 24 24 23 23 23 22 23 22 20 18 17 16 15 15 14 13 12 11 10 10 9 9 8 8 7 7 7 7 7 6 6 6 6 6 6 6 7 7 7
25 25 24 24 24 23 23 23 23 23 23 22 20 19 18 17 16 15 14 13 12 11 10 10 9 8 8 8 7 7 6 6 6 6 6 6 6 6 6 6 6 6 6 7
25 25 24 24 24 23 23 23 23 22 22 22 20 19 17 16 15 14 13 12 11 10 10 9 9 8 8 7 7 6 6 6 6 6 6 6 6 6 5 5 5 5 6 6
25 24 23 24 24 24 23 23 23 22 22 21 19 17 16 15 14 13 12 11 10 10 9 9 8 8 7 7 7 6 6 6 6 6 6 6 5 5 5 5 5 5 5 6
25 24 25 24 23 23 22 22 23 22 21 19 18 17 18 15 13 12 11 10 10 9 9 8 8 7 7 7 6 6 6 6 6 5 5 5 5 5 5 5 5 5 5 5
24 23 23 24 23 22 22 22 22 21 20 19 18 18 18 15 13 12 11 10 9 9 8 8 7 7 6 6 6 6 6 6 5 5 5 5 5 5 5 5 5 5 5 5
24 24 25 24 22 21 21 22 20 19 18 17 17 16 15 13 12 11 10 9 9 8 8 8 7 6 6 6 6 6 6 6 6 5 5 5 5 5 5 5 5 5 5 5
24 23 24 22 22 22 22 20 19 18 17 16 15 15 14 13 11 10 10 9 9 8 8 7 7 6 6 6 6 6 6 6 6 6 6 5 5 5 5 5 5 5 5 5
24 24 22 22 22 21 20 19 18 18 17 16 15 14 13 12 11 10 10 9 8 8 7 7 7 6 6 6 6 6 6 6 6 6 6 6 6 6 5 5 5 5 5 5
23 24 23 21 21 20 19 18 17 16 16 15 14 14 13 11 11 10 9 9 8 8 7 7 7 6 6 6 6 6 6 6 6 6 6 6 6 6 6 5 5 5 5 5
23 23 22 21 21 20 19 17 16 16 15 14 13 13 12 11 10 9 9 8 8 7 7 7 7 6 6 6 6 6 6 6 6 6 6 6 6 6 6 6 5 5 5 5
23 24 23 23 21 20 18 17 16 15 15 14 13 12 11 11 10 9 9 8 8 7 7 7 6 6 6 6 6 6 6 6 6 6 7 7 7 6 6 6 6 6 6 5
23 22 22 21 20 19 18 17 16 15 14 13 12 12 11 10 10 9 8 8 8 7 7 6 6 6 6 6 6 6 6 6 6 7 7 7 7 7 7 6 6 6 6 6
21 20 20 20 20 18 17 17 16 15 14 13 12 11 11 10 9 9 8 8 7 7 6 6 6 7 6 6 6 7 7 7 7 7 7 7 7 7 7 7 6 6 6 6
20 19 20 20 19 18 17 16 15 15 14 13 12 11 10 10 9 9 8 8 7 7 7 7 7 7 7 7 7 7 7 7 7 7 7 7 7 7 7 7 7 6 6 6
21 19 19 19 18 18 16 16 15 15 14 13 12 11 10 9 9 8 8 7 7 7 6 6 7 7 7 7 7 7 7 7 7 7 8 8 8 7 7 7 7 6 6 6
20 19 19 18 18 18 17 16 15 15 14 13 12 11 10 9 9 9 8 7 7 6 6 6 6 7 7 7 7 7 7 7 7 7 8 8 8 7 7 7 7 6 6 6
20 20 20 19 19 18 17 16 15 14 13 12 11 10 10 9 9 8 8 8 7 7 6 6 7 8 8 7 7 7 7 7 7 7 8 8 8 7 7 7 7 6 6 6
19 19 19 19 18 18 17 16 15 14 13 12 11 10 10 9 8 8 8 7 7 7 7 7 8 8 8 7 7 7 7 7 7 8 8 8 8 8 7 7 7 7 6 6
18 18 18 18 17 17 16 15 14 13 12 11 11 10 9 9 8 8 7 7 6 6 7 7 8 8 8 8 8 7 7 7 7 8 8 8 8 8 8 7 7 7 7 7
17 17 17 17 16 16 16 15 14 13 12 11 10 10 9 9 8 8 7 8 7 7 7 7 7 7 8 8 8 7 7 7 7 8 8 8 8 8 8 8 8 8 8 7
16 16 16 16 16 16 15 15 14 13 12 11 10 10 9 9 8 8 7 7 7 7 7 6 6 7 7 7 7 7 7 7 7 8 8 8 8 8 8 8 8 8 8 8
15 15 15 15 15 15 15 14 14 13 12 11 11 10 10 9 9 8 8 7 7 7 7 6 7 7 7 7 7 7 8 7 7 8 8 8 8 8 9 9 9 9 9 9
14 14 14 14 14 14 14 14 14 13 12 11 11 10 10 9 9 8 8 7 7 7 6 6 7 7 7 7 7 7 8 7 7 7 8 8 8 9 9 9 9 9 9 9
13 13 13 13 14 14 14 13 13 13 12 11 11 10 10 9 9 8 8 7 7 7 6 6 6 7 7 7 7 7 7 8 8 8 8 8 8 9 9 9 9 9 9 10
13 13 13 13 13 13 13 13 13 13 12 11 11 10 10 9 9 8 8 7 6 6 5 5 5 6 6 6 7 7 8 8 8 8 8 8 8 9 9 9 9 9 9 10
13 13 13 13 13 13 13 13 12 12 12 11 11 10 10 9 9 8 7 7 6 5 5 4 5 5 5 6 6 7 7 8 8 8 8 8 8 9 9 9 9 9 10 10
Wind_Speed
2 2 3 3 3 2 3 5 8 10 13 13 12 11 11 13 16 16 16 15 16 17 18 18 18 18 18 18 18 18 18 19 19 19 19 19 19 19 19 18 19 18 18 18
3 3 5 7 6 5 4 5 8 11 12 9 8 10 13 15 16 16 16 16 18 19 19 19 18 18 18 18 18 18 19 19 19 19 19 19 20 19 19 19 19 18 18 19
6 2 8 8 8 7 5 6 8 11 13 13 13 14 15 15 15 14 16 18 19 19 18 18 18 18 18 18 18 18 18 19 19 19 20 20 20 20 19 19 18 18 18 18
7 6 7 2 3 3 6 9 8 9 12 12 13 14 14 11 10 14 16 18 18 18 19 18 18 17 17 17 18 18 18 19 19 20 20 20 20 19 19 17 16 16 16 16
7 10 10 2 5 4 6 10 5 8 12 12 12 14 8 3 9 14 16 17 17 17 18 18 17 17 17 17 18 18 18 19 19 20 20 20 19 19 17 15 14 14 14 14
9 11 11 1 7 3 4 7 0 6 10 11 12 12 9 11 14 15 16 16 16 17 17 17 16 17 17 17 18 18 18 19 19 19 19 19 19 17 15 13 13 12 12 12
12 12 8 6 8 5 6 7 4 6 8 9 10 11 14 15 15 15 16 17 16 16 16 15 16 16 17 17 17 18 18 18 18 18 18 18 16 14 13 12 11 10 10 9
7 8 4 10 7 5 6 3 4 6 7 8 10 12 13 14 14 15 16 17 16 15 16 15 15 15 17 17 17 17 18 18 18 17 16 15 14 13 12 11 9 7 7 6
6 6 2 7 6 3 3 5 5 5 6 7 10 12 13 13 14 15 16 16 15 16 16 15 15 15 16 17 17 17 18 18 17 16 15 14 13 12 10 8 6 5 4 4
8 9 5 7 8 7 6 6 5 4 6 7 10 12 13 13 13 15 15 15 15 16 16 16 16 16 16 16 16 16 17 17 16 15 14 13 10 9 9 8 6 4 3 3
11 11 7 9 10 9 7 7 6 5 6 7 9 11 12 12 13 14 15 15 15 15 15 16 16 16 16 15 15 16 16 16 15 13 12 11 10 8 8 7 6 6 4 3
10 6 6 4 4 6 8 8 7 6 6 7 8 10 11 12 12 13 15 15 15 15 16 16 16 16 16 15 14 15 14 14 12 11 11 10 9 7 1 3 2 3 4 5
9 6 6 4 4 5 7 7 6 6 6 7 7 8 10 11 12 13 15 15 16 16 16 15 15 15 15 15 15 15 14 13 11 11 10 10 9 8 6 1 4 1 1 1
9 7 8 9 7 7 7 6 6 5 5 6 7 8 9 11 12 14 15 15 15 15 15 14 15 15 15 15 15 15 14 13 12 11 10 9 8 8 7 6 3 0 3 3
12 13 10 7 8 8 8 7 7 7 6 6 6 7 9 11 12 14 14 14 14 14 14 14 15 16 16 16 16 15 13 11 11 11 10 9 8 7 6 6 4 3 1 4
10 13 12 11 11 10 10 10 9 7 6 6 6 7 8 10 12 13 13 13 14 15 14 14 15 16 17 16 16 13 11 13 13 11 10 8 8 7 6 6 5 3 2 1
12 14 15 16 14 13 12 10 9 7 6 5 6 6 8 10 11 12 13 13 12 12 12 12 14 17 16 15 14 12 11 11 13 11 8 8 7 7 6 5 4 3 2 2
13 14 13 13 12 12 11 10 9 7 6 6 5 6 7 9 11 12 13 13 13 12 10 12 15 17 16 14 13 11 10 10 10 9 9 8 8 6 6 5 4 3 2 1
10 11 11 11 10 10 9 9 8 7 6 6 5 6 6 8 9 11 12 12 12 12 13 16 17 16 15 16 16 11 10 10 10 9 7 6 5 5 5 5 5 3 2 2
7 9 11 11 11 10 10 9 8 7 7 6 6 6 6 7 8 10 11 10 8 9 13 15 16 14 15 15 17 11 10 10 9 9 8 7 6 6 5 5 4 4 3 2
7 8 10 11 11 11 10 10 9 9 8 7 7 6 6 7 7 8 9 9 8 10 13 13 10 12 13 15 15 10 10 9 9 9 8 7 7 6 6 5 4 4 4 3
9 8 9 11 11 11 11 10 10 9 9 8 8 6 6 6 7 7 7 6 8 9 10 9 9 13 17 17 10 9 10 9 8 8 8 8 7 7 7 6 5 5 5 5
11 9 9 10 11 11 11 11 11 10 10 10 9 7 6 5 5 6 7 6 7 10 10 8 11 16 20 11 9 9 9 9 9 8 8 7 7 6 6 6 5 6 6 6
13 12 10 10 10 11 12 12 11 10 10 10 9 8 6 5 4 3 5 3 3 8 8 7 10 15 14 8 8 8 8 9 9 8 8 7 6 6 6 6 5 6 6 6
14 13 12 10 10 11 11 11 11 11 11 10 10 9 7 4 3 3 4 5 4 6 7 6 6 11 9 8 8 8 8 8 9 8 7 7 7 6 6 6 6 6 6 7
15 14 12 11 11 10 10 10 10 10 10 10 9 8 7 5 3 2 3 3 5 5 6 6 8 8 8 8 8 8 8 9 8 7 8 7 7 7 6 6 6 5 6 6
17 15 12 12 11 11 11 11 11 10 10 10 9 8 8 6 4 2 1 2 3 4 5 6 6 7 7 8 8 8 8 8 8 8 8 7 7 7 6 6 5 5 5 6
Wind_Direction
8 336 288 276 257 282 332 337 321 325 320 328 338 330 321 316 318 318 318 319 319 318 318 317 316 315 314 313 313 314 311 308 307 307 304 302 299 296 292 287 281 274 266 258
254 245 274 265 247 246 277 307 313 313 324 349 327 312 313 318 320 318 319 320 320 319 319 318 317 315 315 314 314 313 310 310 309 308 306 303 301 297 293 288 283 276 267 259
297 282 280 266 233 235 269 307 310 315 328 330 316 317 319 318 317 318 320 320 320 319 318 317 316 316 314 314 314 312 311 310 310 309 307 305 302 299 295 291 286 278 268 258
295 288 282 33 117 229 278 297 298 302 317 323 318 316 307 303 313 318 319 319 319 318 318 318 318 317 316 315 313 312 311 312 313 311 310 308 303 300 296 292 285 278 268 259
286 290 294 186 181 218 282 299 300 312 319 319 321 310 314 22 325 318 318 318 317 317 317 318 317 319 318 314 313 312 313 316 316 313 311 309 306 305 302 296 287 280 270 258
273 290 296 347 139 150 281 283 84 312 312 317 319 316 338 346 328 323 321 320 318 317 317 318 321 321 317 314 313 315 317 316 313 310 309 310 309 308 306 300 290 284 272 260
271 278 285 121 144 178 280 342 358 313 311 312 316 312 317 322 323 322 320 320 320 318 317 320 321 319 314 313 313 315 315 312 310 311 310 310 311 310 308 304 296 286 276 261
272 276 288 138 168 241 313 342 309 306 307 309 309 311 315 319 320 320 321 322 323 321 319 320 321 318 314 313 315 315 314 312 311 313 313 314 314 312 311 305 297 289 279 261
274 290 70 187 221 245 282 283 293 298 306 309 309 314 318 319 320 321 322 322 323 321 319 320 321 319 313 313 315 315 314 313 313 314 315 316 317 318 316 310 302 292 280 257
264 270 249 228 232 239 245 260 274 280 297 304 308 314 318 320 320 322 323 323 324 322 320 320 321 318 315 314 317 316 314 314 315 316 316 319 320 321 324 324 321 310 289 261
261 271 263 236 229 235 233 237 247 260 282 300 307 311 317 318 319 322 322 323 323 321 318 317 320 319 318 319 320 316 314 315 317 318 316 316 320 327 329 336 345 320 317 306
272 276 248 238 192 210 220 228 239 258 278 292 300 308 314 316 319 320 321 322 322 322 320 319 320 319 321 324 322 317 315 317 318 317 317 317 322 326 290 289 343 316 307 308
262 259 242 212 188 199 214 222 228 244 270 290 300 306 311 314 316 319 321 323 324 322 320 318 318 320 324 326 321 316 314 314 313 312 314 318 322 325 332 294 187 179 313 297
235 227 227 223 218 204 210 213 223 238 260 279 295 304 308 313 316 320 324 325 324 321 319 319 321 323 327 326 320 317 316 313 310 310 313 317 319 323 327 332 343 340 153 136
223 219 229 224 204 196 203 209 223 241 258 272 285 297 307 314 317 320 323 325 325 322 323 325 325 326 329 325 321 319 318 316 318 315 314 317 321 327 334 339 346 346 30 131
226 217 222 216 212 207 208 216 231 248 262 272 284 297 308 313 315 318 324 329 328 325 325 325 326 327 326 324 323 320 318 311 311 313 317 326 330 339 345 346 349 347 356 19
226 216 215 217 218 216 216 221 231 245 253 258 275 295 305 312 317 323 328 332 329 321 321 329 330 329 326 325 325 321 320 319 314 314 322 331 337 345 348 348 354 351 355 23
236 234 224 220 217 213 213 216 222 231 241 249 261 282 299 313 321 326 327 329 328 326 335 340 337 329 326 331 331 323 322 324 326 328 330 335 340 346 346 351 0 7 17 117
250 240 225 210 204 201 202 206 212 220 224 233 252 276 294 307 318 323 325 326 328 332 341 339 333 328 332 337 335 325 327 328 329 330 331 335 341 1 3 3 4 15 23 25
264 238 222 208 199 196 195 196 201 207 214 222 241 264 285 306 319 323 324 322 335 340 333 330 328 332 336 337 333 329 334 334 335 337 343 352 5 12 16 14 8 14 23 24
296 252 230 219 209 204 201 197 199 206 210 217 233 255 281 301 312 320 323 326 343 347 333 320 328 340 338 331 321 334 340 340 341 343 350 359 6 13 17 21 28 22 31 47
325 289 256 237 223 214 206 202 204 208 211 216 228 242 265 287 306 316 321 328 335 352 334 331 343 343 334 326 333 341 343 343 346 348 350 357 5 12 18 28 38 34 39 47
329 311 284 258 240 228 214 209 209 211 214 218 223 231 249 280 305 314 324 348 339 342 327 339 346 335 327 331 341 342 344 344 346 349 349 351 3 12 19 30 41 44 47 51
326 316 296 275 255 239 227 217 211 213 218 221 220 220 231 252 272 294 326 340 337 333 327 350 339 328 323 342 348 346 346 347 348 349 351 355 4 18 28 34 40 46 56 58
317 309 297 279 258 246 238 226 214 208 215 220 217 207 213 230 271 309 320 329 356 333 333 347 339 327 338 353 352 349 349 351 346 343 351 357 1 12 25 34 39 39 41 49
304 297 291 277 264 256 245 230 221 211 208 215 213 203 199 196 208 245 287 322 341 338 336 345 349 344 352 355 356 354 351 345 344 351 356 355 0 7 14 22 36 37 40 44
290 286 278 272 265 253 245 234 227 217 210 211 209 197 193 191 189 197 272 335 349 352 353 353 354 354 356 358 359 357 356 353 349 350 352 355 356 358 3 9 24 32 36 42
Height
1505 1504 1504 1505 1507 1507 1508 1510 1510 1510 1508 1504 1506 1509 1511 1511 1509 1507 1505 1502 1500 1496 1492 1488 1483 1479 1474 1469 1464 1459 1454 1449 1444 1440 1435 1431 1427 1423 1420 1417 1414 1413 1412 1412
1507 1506 1505 1507 1507 1508 1509 1508 1507 1507 1505 1504 1508 1510 1509 1508 1507 1504 1502 1499 1496 1492 1487 1483 1478 1473 1468 1463 1458 1453 1448 1443 1438 1433 1428 1423 1419 1415 1411 1407 1405 1403 1401 1401
1504 1503 1506 1506 1502 1505 1506 1504 1506 1506 1505 1504 1505 1506 1507 1506 1504 1502 1499 1496 1492 1487 1483 1478 1474 1468 1463 1458 1453 1448 1443 1437 1432 1427 1421 1416 1411 1406 1402 1398 1395 1392 1391 1390
1503 1508 1517 1503 1499 1502 1505 1503 1502 1502 1503 1504 1505 1505 1504 1503 1502 1500 1496 1492 1488 1483 1478 1474 1469 1464 1458 1453 1448 1443 1438 1432 1427 1421 1415 1409 1403 1398 1393 1388 1385 1382 1380 1380
1503 1503 1499 1498 1501 1502 1504 1502 1500 1502 1503 1503 1503 1502 1497 1499 1499 1497 1493 1489 1484 1479 1475 1469 1464 1459 1454 1448 1443 1438 1433 1427 1421 1415 1408 1402 1396 1390 1385 1380 1376 1373 1372 1371
1502 1510 1509 1496 1498 1503 1505 1500 1499 1502 1502 1502 1501 1496 1495 1497 1496 1493 1489 1485 1480 1475 1470 1465 1460 1455 1449 1444 1439 1434 1428 1422 1415 1409 1403 1396 1390 1384 1378 1373 1369 1367 1365 1364
1499 1501 1491 1493 1499 1503 1505 1500 1501 1501 1501 1501 1500 1500 1498 1495 1492 1489 1485 1481 1476 1471 1466 1462 1456 1451 1445 1440 1435 1429 1423 1417 1410 1404 1398 1392 1385 1379 1374 1369 1364 1361 1360 1359
1498 1501 1496 1495 1497 1498 1497 1499 1499 1499 1500 1499 1499 1497 1495 1492 1489 1485 1481 1477 1472 1467 1462 1457 1452 1447 1441 1436 1431 1424 1418 1412 1406 1400 1394 1388 1382 1376 1370 1365 1361 1358 1356 1355
1490 1492 1492 1493 1493 1495 1496 1497 1497 1497 1497 1497 1496 1494 1492 1489 1486 1482 1478 1473 1469 1464 1458 1454 1449 1443 1438 1432 1426 1420 1414 1408 1402 1396 1390 1384 1379 1373 1367 1363 1359 1357 1355 1354
1490 1485 1488 1491 1492 1493 1494 1495 1495 1495 1495 1494 1493 1491 1489 1486 1483 1479 1475 1470 1465 1460 1455 1450 1445 1440 1434 1428 1422 1416 1410 1404 1398 1392 1387 1381 1376 1371 1366 1362 1359 1356 1354 1353
1487 1485 1486 1487 1488 1490 1491 1491 1492 1492 1492 1492 1490 1489 1486 1483 1480 1476 1471 1467 1462 1457 1451 1446 1441 1436 1430 1425 1418 1412 1406 1401 1395 1390 1384 1379 1374 1370 1365 1362 1358 1356 1354 1353
1481 1479 1482 1483 1485 1486 1487 1488 1489 1489 1489 1489 1488 1486 1483 1480 1477 1473 1468 1463 1458 1453 1448 1443 1437 1432 1426 1421 1415 1409 1403 1398 1392 1387 1382 1377 1373 1368 1364 1361 1358 1355 1354 1353
1479 1479 1480 1481 1483 1483 1484 1485 1486 1486 1486 1485 1484 1482 1480 1477 1474 1470 1465 1460 1455 1450 1444 1439 1434 1429 1423 1417 1411 1406 1401 1395 1390 1385 1380 1376 1371 1367 1363 1360 1357 1355 1353 1352
1476 1477 1478 1479 1480 1480 1481 1482 1482 1483 1482 1482 1481 1479 1477 1474 1470 1466 1462 1457 1452 1446 1441 1436 1431 1426 1420 1414 1408 1403 1398 1393 1388 1383 1379 1374 1370 1366 1363 1359 1357 1355 1353 1352
1471 1472 1474 1475 1476 1476 1477 1478 1479 1479 1479 1478 1477 1475 1473 1470 1467 1463 1458 1454 1448 1443 1438 1433 1428 1423 1417 1411 1405 1400 1395 1390 1386 1381 1377 1373 1369 1365 1362 1359 1356 1354 1353 1351
1466 1468 1469 1470 1471 1473 1474 1475 1475 1475 1475 1475 1474 1472 1470 1467 1464 1460 1456 1451 1445 1440 1435 1430 1425 1420 1414 1408 1403 1397 1393 1388 1384 1380 1376 1372 1368 1365 1362 1359 1356 1354 1352 1351
1462 1462 1463 1464 1466 1468 1469 1470 1471 1471 1471 1470 1470 1468 1466 1464 1460 1457 1452 1448 1442 1438 1433 1429 1423 1418 1412 1407 1401 1396 1391 1387 1383 1379 1375 1371 1368 1364 1361 1359 1356 1353 1352 1350
1456 1457 1458 1459 1461 1463 1464 1466 1466 1467 1467 1466 1465 1464 1462 1460 1457 1453 1448 1444 1439 1435 1432 1427 1421 1416 1411 1406 1400 1395 1390 1386 1382 1378 1375 1371 1368 1365 1362 1359 1356 1354 1352 1350
1452 1453 1454 1455 1457 1458 1460 1461 1462 1462 1462 1462 1462 1461 1459 1457 1454 1450 1445 1441 1437 1433 1428 1423 1419 1414 1409 1404 1399 1394 1390 1386 1382 1378 1375 1372 1369 1366 1363 1359 1357 1355 1353 1351
1449 1450 1451 1452 1453 1454 1455 1456 1457 1457 1458 1458 1458 1457 1456 1454 1450 1446 1443 1439 1436 1431 1425 1421 1416 1412 1408 1403 1399 1394 1390 1386 1383 1379 1376 1374 1371 1368 1364 1361 1359 1356 1354 1352
1447 1448 1448 1449 1450 1450 1451 1452 1452 1453 1454 1454 1454 1453 1452 1450 1447 1444 1440 1437 1433 1428 1423 1419 1415 1411 1407 1403 1399 1395 1391 1387 1384 1381 1378 1375 1372 1370 1367 1364 1362 1360 1357 1355
1446 1446 1445 1446 1446 1446 1447 1447 1448 1449 1449 1449 1449 1449 1448 1446 1444 1441 1438 1435 1430 1425 1421 1417 1414 1410 1406 1402 1399 1395 1391 1388 1385 1382 1380 1377 1375 1372 1370 1367 1366 1364 1361 1359
1445 1443 1442 1442 1442 1442 1442 1443 1443 1444 1444 1444 1444 1444 1444 1442 1441 1438 1436 1433 1428 1424 1419 1416 1412 1409 1406 1402 1399 1395 1392 1389 1386 1384 1382 1379 1377 1375 1373 1372 1370 1368 1367 1364
1443 1441 1439 1438 1437 1437 1437 1437 1438 1439 1440 1440 1439 1439 1439 1438 1437 1435 1432 1429 1425 1421 1418 1414 1411 1408 1405 1402 1399 1396 1393 1390 1387 1385 1384 1382 1380 1379 1377 1376 1374 1373 1372 1370
1440 1437 1435 1433 1432 1431 1432 1432 1432 1432 1434 1435 1434 1434 1434 1434 1433 1432 1429 1426 1422 1419 1416 1413 1410 1407 1405 1402 1399 1396 1394 1391 1389 1387 1385 1384 1383 1382 1381 1380 1378 1377 1377 1376
1435 1433 1429 1427 1426 1425 1426 1426 1426 1425 1426 1428 1429 1429 1429 1428 1428 1427 1425 1423 1420 1417 1415 1412 1409 1406 1404 1402 1399 1396 1394 1392 1390 1388 1387 1386 1385 1384 1384 1383 1382 1381 1381 1380
1428 1425 1422 1420 1418 1417 1417 1417 1418 1418 1419 1421 1423 1423 1424 1424 1424 1423 1422 1421 1418 1416 1413 1411 1408 1405 1403 1401 1399 1397 1395 1392 1391 1389 1388 1387 1387 1386 1386 1385 1385 1385 1384 1384